GEFSMW_con_probscp_192.txt.gz
Probability
45 48 48 48 53 61 68 68 65 64 61 53 45 43 43 41 37 37 36 29 20 14 12 15 18 14 11 8 7 8 10 8 4 1 0 0 1 1 1 0 0 0 0
52 54 53 51 55 63 68 68 66 64 61 56 49 46 46 42 38 40 39 31 24 18 15 17 19 16 13 10 9 9 9 8 6 4 1 0 0 1 0 0 0 0 1
57 60 59 57 60 66 68 67 66 65 63 58 52 49 48 45 43 44 41 33 27 22 19 21 23 21 16 13 11 10 9 9 9 7 3 1 1 1 1 1 0 0 1
59 63 65 63 64 65 66 67 68 66 61 55 50 49 48 45 44 45 40 32 24 20 20 24 27 25 19 14 12 11 10 10 10 7 4 3 2 2 2 1 1 1 1
57 62 66 65 63 61 62 66 68 65 57 49 46 46 44 40 40 39 35 28 21 15 16 22 26 23 17 15 15 14 11 10 9 6 4 3 3 2 2 1 1 1 2
51 58 63 63 61 59 60 63 65 63 55 47 44 43 40 36 36 33 28 23 17 12 12 16 19 18 16 17 19 17 13 10 8 6 5 4 4 3 2 1 1 2 3
43 52 60 63 63 63 64 66 67 63 54 48 44 41 37 35 34 29 23 18 15 12 12 13 15 16 15 16 20 20 14 11 8 6 6 6 5 3 3 3 2 2 2
37 44 55 62 63 64 66 68 68 64 54 47 43 39 37 35 32 27 22 18 15 14 16 17 18 19 15 14 19 21 16 11 8 6 8 9 7 5 5 5 3 2 1
32 37 48 56 60 62 63 64 65 62 55 47 41 38 38 37 33 28 24 22 19 17 20 23 22 20 17 16 19 20 16 12 8 7 8 10 10 8 7 6 5 3 2
26 31 40 49 55 57 58 59 59 59 55 47 42 40 42 43 38 33 30 27 24 23 26 29 27 24 20 19 19 17 14 12 8 7 7 9 9 8 7 7 6 5 4
25 29 35 41 45 48 52 55 56 55 52 47 45 44 46 46 43 38 36 34 32 32 34 34 32 28 24 22 19 15 12 10 7 6 6 7 7 7 7 7 6 5 5
33 34 36 37 37 40 46 52 54 52 50 48 47 45 44 45 45 42 41 39 37 36 36 36 34 30 25 22 18 14 10 9 6 5 6 6 7 7 7 6 5 4 4
38 40 40 38 38 39 44 50 52 50 47 47 45 41 40 43 46 46 43 40 36 34 35 35 34 30 25 22 18 12 10 9 7 6 7 8 8 8 8 7 6 4 3
36 39 43 44 43 43 44 46 48 48 45 44 43 39 38 42 46 47 45 41 36 34 36 37 35 31 27 23 18 13 10 10 9 9 9 9 9 9 9 7 5 3 1
32 38 45 47 46 44 43 42 44 47 47 45 43 41 40 41 44 45 43 39 35 34 36 37 35 29 24 19 16 13 10 10 11 12 11 8 7 7 6 5 3 1 0
30 38 45 47 45 41 41 42 45 48 48 46 44 42 41 40 40 39 37 35 32 32 34 34 32 26 18 12 10 11 11 11 12 13 11 7 4 4 3 2 1 0 0
33 39 46 48 45 42 43 45 48 49 47 44 41 40 40 38 35 33 33 33 31 30 31 32 31 25 15 8 6 8 12 13 13 13 11 8 6 5 5 3 1 0 0
36 40 44 44 44 42 43 44 45 44 41 38 36 36 35 34 31 30 32 33 32 31 31 31 31 26 16 8 4 6 10 13 13 13 12 12 9 8 7 5 3 1 1
35 35 35 35 38 40 40 39 38 35 33 32 33 33 33 32 31 31 33 34 32 30 29 29 28 25 18 8 3 4 9 13 14 14 13 12 10 7 5 5 6 5 4
29 28 28 31 36 39 38 36 32 30 29 28 29 32 34 35 35 36 36 33 29 27 25 23 22 21 17 9 2 3 10 14 15 15 14 10 6 4 1 3 7 8 6
25 26 30 34 39 41 39 35 32 30 28 26 27 31 34 36 37 39 38 32 26 22 21 20 19 18 15 9 3 2 8 12 14 16 15 10 4 1 0 2 5 6 5
25 29 34 38 39 38 37 35 33 30 27 26 26 28 31 32 34 37 35 28 22 18 17 16 16 15 14 9 3 1 3 6 10 12 13 9 3 0 0 1 2 2 1
27 29 32 35 33 31 32 33 30 27 26 27 27 28 28 29 30 32 29 23 17 14 12 10 10 12 12 9 3 0 0 2 4 6 6 4 1 0 0 0 0 0 0
24 25 27 28 26 25 26 27 26 23 23 26 27 27 27 26 26 25 22 18 14 10 7 6 7 9 10 8 4 1 0 0 1 1 2 1 1 1 1 1 0 0 0
20 21 22 23 22 22 21 23 23 22 21 23 25 25 23 22 21 19 15 13 9 6 4 5 5 6 7 5 3 1 0 0 0 0 1 2 2 2 2 2 1 1 1
19 19 20 21 21 20 20 21 23 23 21 22 22 21 21 20 18 16 12 7 5 3 2 4 4 4 3 2 1 1 0 0 0 1 2 3 3 3 3 3 3 3 3

GEFSMW_con_probscp_198.txt.gz
Probability
26 27 32 37 40 40 36 32 29 26 22 17 13 9 5 4 4 5 5 5 5 4 2 2 1 0 0 0 0 0 0 0 0 0 0 0 0 0 0 0 0 0 0
34 35 39 42 45 45 40 35 32 28 21 16 11 8 5 4 5 7 7 6 6 4 3 2 1 0 0 0 0 0 0 0 0 0 0 0 0 0 0 0 0 0 0
43 46 49 50 52 52 46 40 37 30 22 16 13 10 7 6 5 6 7 7 7 5 4 3 2 1 0 0 0 0 0 0 0 0 0 0 0 0 0 0 0 0 0
46 51 54 55 56 56 52 46 41 34 25 19 17 14 11 8 5 4 5 6 7 7 5 4 3 1 0 0 0 0 0 0 0 0 0 0 0 0 0 0 0 0 0
44 48 52 55 56 56 55 52 48 41 33 25 20 16 12 8 4 3 4 6 7 7 6 4 3 2 1 0 0 0 0 0 0 0 0 0 0 0 0 0 0 0 0
39 41 45 50 54 54 56 56 53 47 39 30 22 17 12 7 4 3 5 7 7 7 6 5 4 3 2 1 0 0 0 0 0 0 0 0 0 0 0 0 0 0 0
37 38 42 47 51 52 54 56 55 50 42 32 25 19 14 9 7 6 6 8 8 8 7 6 4 3 3 2 1 0 0 0 0 0 0 0 0 0 0 0 0 0 0
38 39 42 46 49 49 50 52 53 51 45 36 28 21 15 11 10 9 9 10 10 9 8 7 5 4 4 4 2 1 1 0 0 0 0 0 0 0 0 0 0 0 0
35 36 38 40 44 45 45 47 50 49 45 38 31 23 18 14 13 12 11 11 11 10 9 8 7 6 6 5 4 2 1 0 0 0 0 0 0 0 0 0 0 0 0
32 32 32 33 36 40 42 45 46 44 43 39 33 26 21 18 16 14 12 12 11 10 10 10 9 7 6 6 5 3 1 0 0 0 0 0 0 0 0 0 0 0 0
29 29 29 30 31 35 41 45 43 41 40 40 36 29 24 20 17 15 13 11 10 10 10 11 11 8 6 6 4 2 1 0 0 0 0 0 0 0 0 0 0 0 0
27 27 27 29 31 34 40 44 41 37 35 36 35 31 25 21 18 16 13 9 8 9 9 10 10 8 7 6 4 2 1 1 0 0 0 0 0 0 0 0 0 0 0
27 25 26 30 32 35 39 40 37 33 32 32 32 31 26 22 19 17 14 10 8 8 8 9 10 9 7 6 4 2 2 2 1 1 1 1 1 1 1 1 1 0 0
29 27 26 28 30 33 37 37 33 32 32 31 29 28 25 22 19 17 15 12 9 9 8 8 8 7 5 4 4 4 4 4 3 2 2 2 2 2 2 2 2 1 0
32 29 26 26 28 31 34 33 31 31 30 28 25 23 21 19 17 15 14 13 11 10 10 8 7 6 5 5 5 6 6 5 4 3 2 3 3 3 3 2 2 1 1
33 30 27 26 27 28 27 26 25 24 23 22 20 17 15 14 13 12 12 13 12 11 12 11 9 7 7 7 7 6 6 6 5 4 4 5 5 3 2 1 1 1 0
27 27 27 26 25 24 22 20 19 18 18 18 16 13 12 13 13 12 11 12 12 13 14 14 13 11 9 8 6 5 5 6 5 5 6 6 5 4 3 2 1 0 0
19 21 25 25 24 21 19 18 16 14 15 14 13 12 12 13 14 13 12 12 13 15 15 15 15 13 11 8 5 3 4 5 4 4 5 6 4 3 3 2 1 0 0
14 16 20 23 21 17 16 16 14 12 11 11 11 12 13 14 16 17 16 16 16 16 16 16 15 14 11 7 3 2 3 4 4 4 5 5 3 2 1 1 0 0 0
14 14 16 18 17 13 12 14 13 11 9 9 9 10 12 14 17 18 19 19 17 15 14 14 13 11 9 5 2 1 3 4 4 4 4 4 2 1 0 0 0 0 0
17 17 16 14 12 11 11 12 13 10 8 8 8 8 10 12 14 15 15 15 13 11 11 10 9 8 6 3 1 1 2 3 3 3 3 3 1 0 0 0 0 0 0
19 18 16 12 9 9 10 11 11 9 7 6 5 6 7 8 10 10 11 10 9 8 8 8 7 5 3 2 1 0 1 1 1 1 1 1 0 0 0 0 0 0 0
18 17 15 11 8 8 9 10 9 8 6 4 4 4 5 6 7 8 8 9 9 9 8 7 5 4 2 1 0 0 0 0 0 0 0 0 0 0 0 0 0 0 0
14 14 12 9 8 8 10 9 9 8 7 6 5 5 4 4 4 5 5 7 8 8 8 6 4 2 1 0 0 0 0 0 0 0 0 0 0 0 0 0 0 0 0
14 13 11 9 8 10 10 9 9 8 7 6 5 5 4 3 2 2 2 2 4 4 5 4 2 1 0 0 0 0 0 0 0 0 0 0 0 0 0 0 0 0 0
17 16 13 9 8 10 10 8 8 7 6 5 4 4 4 3 2 2 1 0 1 1 2 2 1 0 0 0 0 0 0 0 0 0 0 0 0 0 0 0 0 0 0

GEFSMW_con_probscp_204.txt.gz
Probability
8 9 9 8 9 11 11 10 7 4 3 2 1 0 0 0 0 0 0 1 1 0 0 0 0 0 0 0 0 0 0 0 0 0 0 0 0 0 0 0 0 0 0
10 11 12 11 11 12 13 12 9 6 4 2 0 0 0 0 0 0 1 2 2 1 1 1 0 0 0 0 0 0 0 0 0 0 0 0 0 0 0 0 0 0 0
12 15 16 16 15 15 15 15 14 11 8 5 2 1 1 1 1 1 1 3 3 3 3 2 1 0 0 0 0 0 0 0 0 0 0 0 0 0 0 0 0 0 0
15 18 21 22 23 22 19 19 18 16 13 8 5 4 3 2 2 2 2 3 3 3 3 2 1 0 0 0 0 0 0 0 0 0 0 0 0 0 0 0 0 0 0
18 22 25 29 31 29 26 24 22 18 14 11 9 7 6 4 2 2 3 4 3 3 3 3 2 1 1 0 0 0 0 0 0 0 0 0 0 0 0 0 0 0 0
22 24 28 32 34 35 33 31 26 19 15 13 12 11 10 7 4 3 3 4 4 3 4 5 4 3 2 1 0 0 0 0 0 0 0 0 0 0 0 0 0 0 0
22 24 28 32 35 37 38 36 29 22 18 16 15 14 12 10 7 5 5 5 4 4 5 6 5 4 4 2 1 0 0 0 0 0 0 0 0 0 0 0 0 0 0
18 20 25 31 33 35 37 37 30 24 21 20 18 16 14 12 10 9 8 7 6 6 6 6 6 6 5 4 1 0 0 0 0 0 0 0 0 0 0 0 0 0 0
14 16 22 27 29 30 31 32 30 27 26 24 20 17 16 16 14 12 10 9 9 8 7 6 6 6 6 5 3 1 0 0 0 0 0 0 0 0 0 0 0 0 0
12 15 20 22 24 25 25 26 28 29 30 26 21 18 18 18 16 13 11 11 10 9 8 7 7 6 6 6 4 2 0 0 0 0 0 0 0 0 0 0 0 0 0
11 14 18 19 19 20 21 21 22 26 28 24 19 17 17 16 14 12 11 11 10 8 8 8 7 7 6 6 5 3 1 0 1 0 0 0 0 0 0 0 0 0 0
12 13 15 17 17 17 19 18 18 22 25 21 16 15 14 12 11 10 10 9 8 7 7 8 8 7 6 6 5 3 1 0 0 0 0 0 0 0 0 0 0 0 0
14 14 15 15 16 16 17 17 17 20 23 21 16 13 13 11 10 9 8 7 7 6 6 7 7 6 6 5 4 3 2 1 1 1 1 1 1 1 1 1 1 1 1
16 16 16 16 16 16 17 17 17 18 21 20 16 14 13 12 11 10 7 6 6 5 5 5 6 5 4 4 3 3 3 3 2 2 2 2 2 2 2 2 2 2 2
15 15 15 16 16 16 18 18 17 15 15 16 15 13 12 11 10 9 7 5 5 6 6 6 5 4 4 3 2 2 3 4 3 3 3 3 3 3 3 2 2 3 3
12 13 14 15 15 17 19 19 15 11 11 13 14 13 11 9 9 8 8 7 6 7 8 7 5 5 4 3 1 2 4 5 4 3 3 3 3 2 2 1 1 1 2
9 11 12 13 14 17 19 18 13 11 10 11 12 12 9 8 8 8 8 9 9 8 8 7 7 6 5 2 0 1 3 5 5 4 3 3 2 2 2 1 1 0 1
6 7 10 12 14 15 16 14 11 10 9 9 9 8 7 5 5 4 6 9 10 9 8 8 7 6 4 2 0 0 1 3 4 3 3 4 4 4 3 3 3 1 1
3 5 8 11 12 13 13 13 10 7 6 6 7 6 4 3 2 2 4 7 8 8 8 8 7 6 4 1 0 0 1 2 3 3 4 5 5 5 4 4 4 3 2
4 5 8 11 12 12 12 11 7 4 3 4 5 5 3 2 1 2 4 5 5 5 6 6 6 5 3 1 0 0 0 1 2 3 4 4 4 4 2 3 4 2 1
4 6 9 12 12 12 12 9 5 3 3 3 4 3 2 2 3 3 3 3 3 3 4 4 5 4 2 0 0 0 0 0 1 3 4 3 2 1 1 1 2 1 0
5 7 11 12 12 11 10 7 4 3 3 3 3 3 3 3 3 3 3 3 3 3 3 3 4 5 3 1 0 0 0 0 1 2 3 2 1 0 0 0 0 0 0
5 9 13 13 10 7 5 3 2 3 3 3 3 3 3 3 3 3 3 3 3 4 4 4 4 4 2 1 0 0 0 0 1 1 1 1 0 0 0 0 0 0 0
5 9 12 12 8 4 2 1 1 3 3 3 3 3 3 3 3 3 3 3 4 4 5 4 3 2 1 0 0 0 0 0 0 0 0 0 0 0 0 0 0 0 0
4 7 10 9 6 3 3 2 3 3 3 3 3 3 3 3 3 2 2 2 3 3 3 2 2 1 0 0 0 0 0 0 0 0 0 0 0 0 0 0 0 0 0
3 6 8 7 5 3 3 3 3 3 3 3 3 3 3 3 2 1 1 1 1 1 1 1 1 0 0 0 0 0 0 0 0 0 0 0 0 0 0 0 0 0 0

GEFSMW_con_probscp_210.txt.gz
Probability
7 8 10 11 11 12 14 13 12 11 9 8 8 7 5 4 5 6 5 4 3 3 2 1 0 1 1 1 0 0 0 0 0 0 0 0 0 0 0 0 0 0 0
10 12 15 15 15 17 18 17 16 15 12 10 9 8 7 6 6 6 6 4 4 4 3 1 1 2 2 2 1 1 1 1 0 0 0 0 0 0 0 0 0 0 0
12 17 21 22 21 21 22 22 22 20 17 14 13 11 10 8 6 6 6 5 6 6 4 2 2 3 3 3 3 3 3 2 1 1 2 1 1 0 0 0 0 0 0
14 17 24 27 25 23 23 25 25 23 20 17 16 16 13 8 6 7 6 5 6 6 4 4 4 5 5 4 4 5 5 3 2 1 2 2 2 1 0 0 0 0 0
14 17 22 27 28 25 24 26 27 26 22 19 19 18 14 9 8 8 8 7 6 5 5 5 6 7 7 7 7 8 7 6 4 3 2 2 2 1 1 0 0 0 0
11 15 21 26 29 29 28 29 31 32 28 23 21 18 14 11 10 11 10 10 9 8 8 8 9 9 9 10 13 12 11 10 9 7 5 3 2 1 1 1 0 0 0
9 14 23 29 33 34 34 35 37 39 36 30 24 19 15 13 12 13 12 12 12 12 12 12 14 14 13 13 16 16 15 14 13 11 9 6 3 1 1 2 1 0 0
10 14 23 32 36 37 37 38 40 42 40 34 28 23 18 15 13 12 12 12 13 15 16 17 19 19 18 17 18 18 18 17 15 12 12 10 5 3 3 4 3 1 0
11 13 22 31 36 37 37 35 36 39 37 33 28 25 21 18 16 13 13 14 16 17 19 19 20 21 21 21 21 20 19 19 17 14 13 12 8 5 5 6 5 3 2
11 14 21 28 31 34 35 32 30 32 32 29 26 24 23 22 22 19 17 17 19 20 20 19 19 21 22 23 23 22 20 19 19 18 17 16 13 10 9 9 7 6 5
13 17 22 26 29 31 34 33 31 31 30 29 26 24 24 25 26 24 21 20 21 21 20 18 19 21 23 24 23 20 18 18 21 22 23 21 18 16 15 13 12 10 9
18 20 24 26 28 31 34 37 36 34 32 32 30 26 25 25 25 22 19 19 19 18 17 16 17 20 23 23 22 18 16 17 20 22 24 24 22 20 19 17 15 12 10
25 25 26 27 28 31 35 37 36 35 34 33 33 30 26 22 18 15 14 14 14 14 13 12 14 17 19 19 18 17 17 18 20 21 22 23 22 22 20 17 14 11 8
32 31 29 29 29 32 36 35 35 36 35 33 34 33 27 22 18 13 10 10 11 11 11 13 16 16 16 15 17 18 19 20 22 23 23 21 20 19 16 13 11 10 8
34 31 29 29 31 35 37 37 37 38 36 34 34 34 31 27 24 19 13 11 14 15 15 17 19 19 16 14 14 16 17 19 23 25 24 20 15 13 10 8 8 9 9
29 27 25 26 30 35 37 38 39 39 36 35 35 34 32 30 27 22 18 17 20 22 21 21 22 21 17 11 8 9 12 17 22 26 24 18 11 8 5 3 3 4 5
23 23 24 26 30 35 38 38 40 40 38 35 35 35 32 29 26 22 20 21 24 25 24 23 23 21 15 9 4 4 9 16 22 25 24 18 11 8 6 5 4 4 4
19 21 25 28 32 37 39 39 41 41 39 37 36 33 29 27 26 23 21 21 23 23 24 24 24 21 15 8 3 3 8 15 20 23 22 18 13 10 9 8 9 9 9
21 23 26 30 36 40 41 40 38 37 36 35 33 29 25 23 23 22 20 19 20 21 22 24 24 21 16 8 3 3 8 14 17 18 17 15 13 10 7 8 11 12 12
27 28 30 33 38 40 39 36 32 30 29 28 27 26 23 20 19 19 17 17 18 19 19 20 21 19 16 10 3 3 9 13 14 13 11 10 9 6 4 5 9 10 10
31 32 33 34 35 34 34 33 29 26 24 23 22 22 20 16 13 14 14 15 16 15 14 15 14 13 13 9 3 2 7 10 11 10 8 6 5 3 2 2 5 6 6
30 31 30 29 28 26 29 31 29 26 24 22 19 17 15 11 8 9 11 11 11 10 8 9 9 8 8 6 2 1 2 6 8 8 6 4 2 1 0 0 1 2 2
27 26 26 26 24 23 26 30 30 28 24 21 17 13 12 8 7 8 8 7 7 7 5 5 6 6 6 5 3 1 1 2 4 6 4 2 1 0 0 0 0 0 0
24 24 25 28 27 25 25 29 30 28 25 20 16 13 12 10 9 9 7 6 6 5 5 4 4 5 5 4 2 2 2 2 2 2 1 0 0 0 0 0 0 0 0
25 25 27 30 30 26 24 25 28 28 25 20 14 12 11 10 10 9 7 5 5 5 5 5 4 3 3 1 1 2 2 2 2 1 0 0 1 1 1 1 0 0 0
27 27 29 31 30 26 21 21 25 26 25 20 14 10 10 10 11 10 6 3 3 3 4 4 3 2 1 0 0 1 1 1 1 1 0 1 2 2 2 2 1 0 0